Regional Weather Roundup
Issued by NWS

Home | Current Version | Previous Version | Text Only | Print | Product List | Glossary Off
Versions: 1 2 3 4 5 6 7 8 9 10 11 12 13 14 15 16 17 18 19 20 21 22 23 24 25 26 27 28 29 30 31 32 33 34 35 36 37 38 39 40 41 42 43 44 45 46 47 48 49 50

000
ASUS43 KIND 260609
RWRIN

WEATHER ROUNDUP FOR INDIANA
NATIONAL WEATHER SERVICE INDIANAPOLIS IN
200 AM EDT WED JUL 26 2017

NOTE: "FAIR" INDICATES FEW OR NO CLOUDS BELOW 12,000 FEET WITH NO
SIGNIFICANT WEATHER AND/OR OBSTRUCTIONS TO VISIBILITY.

* - STATION DOES NOT REPORT WEATHER SUCH AS PRECIPITATION OR FOG.

+ - STATION NOT QUALITY CONTROLLED BY THE NATIONAL WEATHER SERVICE.
    USE DATA WITH CAUTION...ESPECIALLY DEWPOINT AND RELATIVE
    HUMIDITY OBSERVATIONS.

INZ001>003-010>013-019-020-260700-
NORTHWEST INDIANA

CITY           SKY/WX    TMP DP  RH WIND       PRES   REMARKS
GARY /AIRPORT/ CLEAR     69  59  69 SE6       30.13S
KNOX *+        CLOUDY    61  59  94 SE6       30.14F
LA PORTE +     CLOUDY    61  58  91 SE3       30.15S
6HR MIN TEMP:  60; 6HR MAX TEMP:  71;

MICHIGAN CITY+ PTCLDY    66  57  72 S3        30.14F
MONTICELLO +   CLEAR     65  61  85 CALM      30.15F
6HR MIN TEMP:  65; 6HR MAX TEMP:  76;

RENSSELAER +   CLEAR     63  59  88 SE5       30.14F
VALPARAISO     PTCLDY    67  60  78 SE7       30.15S
6HR MIN TEMP:  65; 6HR MAX TEMP:  76;


$$

LMZ046-743>745-260700-
SOUTHERN LAKE MICHIGAN

STATION/POSITION TIME  TEMP    WIND        PRES    WAVE
                       AIR SEA DIR/SP/G            HT
                 (UTC) (F)     (DEG/KT/KT) (MB)    (FT)
BURNS HARBOR     0540   71     160/ 10/ 16 1020.3F
MICHIGAN CITY    0540   69     130/  5/  7   N/A
5NW MICH CITY    0600   70 74  160/ 10/ 14   N/A     1

$$

INZ004-005-014>016-021>024-260700-
NORTH CENTRAL INDIANA

CITY           SKY/WX    TMP DP  RH WIND       PRES   REMARKS
GOSHEN         CLOUDY    63  56  78 SE7       30.16F
6HR MIN TEMP:  61; 6HR MAX TEMP:  76;

LOGANSPORT +   CLEAR     59  59 100 E6        30.16F
PERU/GRISSOM   CLEAR     63  61  91 SE3       30.15F
6HR MIN TEMP:  63; 6HR MAX TEMP:  75; 6HR PCP: TRACE;

ROCHESTER +    CLOUDY    63  61  94 CALM      30.16F
SOUTH BEND     CLOUDY    66  59  78 SE5       30.16S
6HR MIN TEMP:  63; 6HR MAX TEMP:  76;

WARSAW +       CLOUDY    61  59  94 CALM      30.16F

$$

INZ006>009-017-018-025>027-260700-
NORTHEAST INDIANA

CITY           SKY/WX    TMP DP  RH WIND       PRES   REMARKS
AUBURN +       CLEAR     63  57  82 CALM      30.19F
FORT WAYNE     PTCLDY    62  58  86 SE5       30.18S
6HR MIN TEMP:  62; 6HR MAX TEMP:  75;

HUNTINGTON +   CLEAR     62  60  95 CALM      30.17F
6HR MIN TEMP:  62; 6HR MAX TEMP:  74;

KENDALLVILLE + CLEAR     62  58  88 SE3       30.19S

$$

INZ028-029-035-036-043>045-051>053-260700-
WEST CENTRAL INDIANA

CITY           SKY/WX    TMP DP  RH WIND       PRES   REMARKS
GREENCASTLE +  CLEAR     63  59  88 CALM      30.17S
LAFAYETTE      CLEAR     65  62  90 CALM      30.13F
6HR MIN TEMP:  63; 6HR MAX TEMP:  75;

TERRE HAUTE    CLEAR     67  61  81 E3        30.14F
6HR MIN TEMP:  65; 6HR MAX TEMP:  79;


$$

INZ030>032-037>040-046>048-054>057-064-065-260700-
CENTRAL INDIANA

CITY           SKY/WX    TMP DP  RH WIND       PRES   REMARKS
CP ATTERBURY + CLEAR     59  59 100 CALM      30.18R
FRANKFORT +    CLEAR     64  62  93 SE6       30.16F
6HR MIN TEMP:  64; 6HR MAX TEMP:  77;

GREENWOOD *+   PTCLDY   N/A N/A N/A SE5       30.18S
INDIANAPOLIS   CLEAR     67  61  81 SE9       30.16S
6HR MIN TEMP:  67; 6HR MAX TEMP:  77;

-EAGLE CREEK   CLEAR     69  60  73 SE6       30.16F
6HR MIN TEMP:  68; 6HR MAX TEMP:  78;

KOKOMO +       CLEAR     62  59  90 SE6       30.17F
6HR MIN TEMP:  62; 6HR MAX TEMP:  75; 6HR PCP: TRACE;

MARION +       CLEAR     63  59  88 SE6       30.17F
MT COMFORT *+  CLEAR     63  59  88 SE5       30.19S
SHELBYVILLE    CLEAR     63  58  83 E6        30.16S
6HR MIN TEMP:  63; 6HR MAX TEMP:  77;

ZIONSVILLE +   CLEAR     62  60  92 CALM      30.18S
6HR MIN TEMP:  61; 6HR MAX TEMP:  75;


$$

INZ033-034-041-042-049-050-058-059-260700-
EAST CENTRAL INDIANA

CITY           SKY/WX    TMP DP  RH WIND       PRES   REMARKS
MUNCIE         CLEAR     64  59  83 SE6       30.18S
6HR MIN TEMP:  62; 6HR MAX TEMP:  76;

RICHMOND +     CLEAR     55  55 100 SE6       30.21S

$$

INZ060-061-067>069-081>083-085>088-260700-
SOUTHWEST INDIANA

CITY           SKY/WX    TMP DP  RH WIND       PRES   REMARKS
EVANSVILLE     CLEAR     74  68  81 NE3       30.11F
6HR MIN TEMP:  74; 6HR MAX TEMP:  84;

HUNTINGBURG *+ PTCLDY    71  66  84 E3        30.12F
6HR MIN TEMP:  70; 6HR MAX TEMP:  81;


$$

INZ062-063-066-070>080-084-089>092-260700-
SOUTH CENTRAL AND SOUTHEAST INDIANA

CITY           SKY/WX    TMP DP  RH WIND       PRES   REMARKS
BEDFORD +      CLEAR     66  61  82 CALM      30.13
BLOOMINGTON    CLEAR     62  59  90 CALM      30.15F
6HR MIN TEMP:  62; 6HR MAX TEMP:  80;

MADISON *+     CLEAR     66  61  82 E5        30.18F
NORTH VERNON + CLEAR     64  61  88 E5        30.18R
SEYMOUR +      CLEAR     66  63  88 CALM      30.15

$$





USA.gov is the U.S. government's official web portal to all federal, state and local government web resources and services.